RH
26 27 24 23 26 22 16 15 8 8 7 8 8 9 8 8 4 4 12 12 11 8 4 4 4 3 3 4 4 5 5 5 4 4 4 4 4 3 2 2 1 1 1
28 28 25 26 22 16 14 8 8 7 8 8 8 8 8 7 5 6 12 11 11 11 5 5 4 4 4 3 4 5 6 5 4 4 5 4 5 3 2 2 1 1 0
28 27 27 24 16 10 10 9 7 9 9 9 8 9 9 8 7 8 12 11 13 14 7 5 5 4 4 4 4 5 6 6 5 5 5 5 6 5 3 2 1 0 0
29 27 27 22 12 10 13 9 9 9 10 9 8 10 9 8 8 9 12 12 12 15 12 9 6 6 4 4 4 6 6 7 6 6 6 6 6 7 5 3 1 0 0
29 27 30 23 13 14 15 11 11 11 11 10 9 10 10 8 7 8 10 10 11 15 17 17 17 14 7 6 4 5 6 7 7 7 7 7 7 7 6 4 1 0 0
28 28 28 24 15 12 15 12 9 10 11 12 9 9 10 8 6 6 9 9 16 20 19 20 20 16 10 8 6 5 5 6 7 7 7 7 8 8 8 5 2 0 0
28 29 26 22 14 15 14 10 8 9 11 12 9 7 10 8 5 5 8 8 11 15 18 20 20 16 10 9 6 5 5 5 6 7 7 7 8 9 9 7 2 1 0
31 29 26 18 15 20 9 8 6 8 10 9 7 7 10 8 5 6 6 2 12 7 6 5 7 7 8 9 7 6 5 4 5 6 7 8 8 9 10 7 4 1 1
38 29 26 16 20 21 9 7 6 6 7 7 8 8 7 6 3 5 4 18 8 11 15 11 4 4 5 5 5 5 5 4 4 4 5 6 6 8 9 9 5 1 1
39 31 23 19 25 26 14 7 8 8 7 7 12 12 9 3 4 5 16 20 14 20 16 15 12 8 5 5 5 5 5 4 4 3 3 4 5 6 8 8 5 2 1
38 32 22 22 28 27 26 13 9 9 9 11 14 14 12 7 5 6 21 16 24 20 19 19 16 12 9 7 6 5 4 4 4 4 4 5 6 6 7 7 6 2 1
36 29 24 29 29 24 24 24 19 12 12 11 12 14 15 13 7 8 21 21 26 22 25 27 26 19 13 10 9 10 10 9 9 7 6 5 5 6 7 8 7 3 1
34 23 20 26 24 21 19 19 20 19 14 12 10 12 15 16 13 8 21 22 26 23 26 28 28 28 26 19 16 14 15 16 16 14 11 10 8 7 7 8 8 5 2
31 26 21 26 29 21 15 15 15 15 15 12 10 12 13 13 10 7 18 19 24 24 24 26 29 31 31 32 33 33 33 35 35 36 35 32 24 16 11 10 9 7 4
26 26 24 26 28 26 24 19 18 18 17 19 20 20 20 14 9 9 13 19 21 25 25 24 25 25 27 31 35 36 37 39 41 43 44 44 42 36 24 15 11 10 7
33 32 30 28 25 27 26 24 25 20 21 24 22 22 19 16 12 10 10 21 18 20 21 21 21 24 25 26 29 31 33 37 39 42 47 48 49 48 44 33 18 13 11
34 30 28 27 26 23 20 13 13 16 21 19 18 17 14 12 10 8 10 21 20 18 16 17 20 23 24 25 25 26 27 28 31 36 43 51 56 58 54 48 34 19 17
31 28 27 25 20 16 12 10 10 10 12 12 11 10 9 7 8 7 10 19 20 22 23 25 26 27 26 27 29 28 26 25 26 32 39 50 58 63 63 58 50 28 18
29 26 21 13 12 11 10 8 8 7 6 6 6 6 7 7 6 6 10 15 16 20 22 20 23 27 28 31 32 33 31 28 27 33 39 42 51 61 66 64 59 43 25
23 18 11 9 9 8 7 7 7 7 7 7 7 7 7 7 7 6 7 11 11 9 6 6 4 10 16 13 15 31 30 29 33 39 45 45 47 55 64 68 66 67 43
13 5 4 5 6 6 6 6 6 7 7 7 7 7 6 6 6 6 6 7 8 6 4 2 0 1 2 4 25 32 36 40 45 49 49 49 50 58 68 76 80 86 58
3 4 5 4 4 4 3 4 5 5 5 5 6 6 6 6 6 6 7 7 7 8 5 2 2 2 10 33 38 42 44 47 51 51 51 52 60 73 83 91 90 93 87
5 4 2 2 1 1 1 0 0 1 1 2 3 3 3 4 5 5 5 6 6 4 5 12 30 38 37 42 45 47 45 46 51 57 61 70 78 86 94 95 91 90 95
6 6 5 5 5 6 6 7 8 8 8 8 6 6 8 9 10 10 8 9 9 17 28 34 38 39 35 42 47 56 58 66 66 59 68 80 92 99 97 95 90 91 87
13 14 15 15 14 14 15 14 14 13 13 14 14 14 16 18 18 20 22 21 22 25 33 41 45 46 48 57 64 67 71 73 74 75 63 89 79 93 90 95 92 92 80
14 15 17 19 21 22 21 20 21 22 22 23 25 25 27 27 28 30 34 40 46 45 45 46 51 56 62 68 70 72 74 74 85 89 76 88 82 82 76 75 78 100 91
Wind_Speed
11 10 10 7 6 6 6 7 7 4 1 1 1 0 2 4 8 10 7 8 9 13 12 12 12 12 12 13 16 19 20 23 24 26 29 30 33 33 35 35 32 33 29
11 10 8 7 6 5 6 7 6 3 2 1 0 2 4 6 10 10 9 9 11 14 13 13 13 14 15 16 18 19 21 22 24 28 28 31 33 33 35 35 32 30 28
11 9 7 7 6 5 4 5 4 3 2 2 2 3 5 9 11 11 10 10 12 16 15 15 16 17 17 18 19 19 22 24 26 28 29 31 34 34 35 35 31 27 25
9 9 7 8 7 4 3 4 3 2 3 4 4 4 7 10 12 12 11 13 15 16 16 16 18 20 20 19 19 19 21 23 26 28 30 31 33 35 35 34 29 26 23
8 9 8 8 8 4 5 6 6 5 5 6 8 7 9 11 12 14 15 17 18 18 20 21 22 23 24 22 21 22 23 24 26 28 31 33 35 36 33 32 30 23 20
9 10 9 9 8 6 8 9 8 7 8 9 10 9 11 13 14 15 17 19 20 21 22 24 27 29 29 27 23 24 25 26 27 29 31 34 36 38 35 31 28 23 19
10 11 9 9 8 7 9 11 9 9 10 10 11 12 12 14 16 16 18 20 22 25 27 29 31 33 32 28 26 26 27 28 30 32 33 34 36 38 36 32 28 23 19
12 12 11 10 9 10 11 12 10 10 11 11 12 12 13 15 17 17 19 20 24 26 28 31 32 31 28 27 26 27 28 30 32 32 33 34 37 37 37 34 28 24 20
14 13 13 11 10 11 11 11 10 9 9 10 11 12 15 17 17 17 17 20 23 22 25 25 24 25 25 25 25 27 28 30 33 34 34 35 37 37 36 36 31 25 22
15 14 14 12 12 12 11 10 10 10 11 10 11 12 16 17 16 17 18 22 20 23 25 25 26 26 27 26 26 28 29 30 32 34 35 36 37 38 37 36 32 28 24
14 15 16 14 15 15 13 13 14 13 12 11 12 14 17 18 19 19 20 20 21 25 28 29 29 28 27 27 27 28 28 29 31 33 35 36 38 38 38 37 35 30 28
15 17 17 16 16 16 16 16 16 18 17 17 17 18 19 21 21 21 22 20 22 26 28 29 30 30 30 29 29 29 30 32 34 36 38 38 39 39 37 37 37 34 31
17 17 17 17 16 18 18 17 17 19 21 22 23 23 23 23 23 22 23 21 24 25 27 27 28 29 28 29 29 30 30 32 33 34 36 36 37 38 38 37 36 35 32
18 18 19 18 18 19 19 18 19 19 20 22 25 26 27 27 25 24 25 25 26 27 27 29 29 31 31 30 29 30 31 33 35 36 38 40 40 41 40 39 37 35 34
18 19 19 21 20 21 22 24 24 23 24 26 30 33 34 30 28 28 28 28 29 30 31 32 33 34 35 35 34 35 35 36 37 38 39 39 41 41 41 42 42 40 38
19 17 19 22 22 25 28 29 29 29 30 35 36 38 37 35 32 31 31 32 32 34 35 36 38 39 39 39 39 40 41 41 41 42 41 42 43 44 44 43 41 42 42
19 19 20 23 27 32 31 30 30 32 34 34 36 36 37 35 32 31 33 34 35 36 37 39 41 42 42 43 44 44 44 44 44 44 44 45 45 45 46 46 44 42 42
20 24 27 29 31 30 30 28 27 28 29 31 33 35 36 34 33 33 35 37 38 38 38 40 43 44 45 45 47 48 48 48 47 46 46 47 48 48 49 48 48 48 44
25 29 33 32 28 28 30 29 27 28 29 30 31 33 35 36 36 36 38 39 42 40 41 44 45 46 46 46 48 49 50 50 50 48 47 49 49 50 51 51 50 51 49
31 34 33 31 30 29 29 29 29 29 31 34 35 34 37 38 40 40 41 43 44 44 45 48 48 49 49 50 52 51 52 51 51 52 51 51 52 53 54 53 52 53 53
33 33 33 32 30 28 26 27 29 31 33 35 36 37 38 40 42 42 44 47 48 47 49 51 52 51 52 54 55 55 55 55 53 54 56 54 54 55 55 55 57 58 55
31 29 28 28 29 28 29 31 32 34 36 38 40 40 41 43 44 46 47 48 49 52 51 53 57 57 54 56 57 58 58 56 57 57 57 56 55 57 57 62 63 63 60
27 28 28 27 28 29 30 30 33 35 36 38 40 40 41 42 43 45 47 49 50 52 53 54 55 57 58 58 59 60 63 63 61 56 55 55 56 57 63 63 62 62 64
26 25 26 27 28 29 31 31 33 34 35 38 39 41 41 42 42 44 47 50 52 55 55 57 58 59 63 64 64 63 64 63 63 64 61 60 62 63 62 60 62 63 61
26 27 29 30 32 34 36 38 39 41 43 45 46 48 49 50 50 51 53 57 59 60 60 61 62 64 66 67 67 67 66 63 61 65 66 63 67 64 60 59 59 60 62
29 31 34 36 38 40 42 44 45 47 49 51 53 54 55 56 57 58 59 61 62 64 65 65 66 65 66 67 67 67 67 67 65 66 68 67 71 65 63 58 58 57 57
Wind_Direction
261 262 265 258 249 244 239 256 262 269 195 133 98 190 338 339 327 338 324 328 337 344 341 336 334 328 329 338 342 345 348 344 343 344 342 340 341 338 338 340 341 341 340
265 260 262 253 241 238 248 258 265 237 229 207 38 324 330 322 332 334 325 327 332 343 334 330 321 322 326 329 332 337 341 336 337 339 336 337 339 339 339 341 340 342 345
269 263 254 235 242 230 262 275 230 239 255 276 279 289 318 326 336 336 322 319 330 333 330 328 321 311 319 324 331 331 331 332 332 336 334 333 336 340 340 340 340 343 343
256 262 242 235 238 247 287 270 244 276 293 291 263 291 319 325 325 325 322 322 323 320 334 331 320 315 315 318 318 323 327 327 328 333 334 332 334 340 341 340 340 340 342
251 259 252 245 246 249 270 268 258 273 295 293 266 287 313 316 318 319 323 323 318 312 312 316 318 325 318 312 312 311 317 320 323 328 333 333 334 334 339 340 337 334 339
266 250 245 249 259 270 271 263 261 265 275 284 274 282 300 313 316 319 322 320 317 313 309 310 314 319 317 307 304 303 304 312 315 321 328 332 332 333 334 336 334 327 330
268 257 254 256 257 271 275 260 254 258 266 280 275 283 302 313 317 318 314 314 318 317 314 311 311 312 310 307 300 298 300 304 307 312 320 325 328 329 329 330 329 322 320
266 257 258 258 262 272 279 263 250 252 263 275 280 290 303 307 310 307 313 316 320 322 322 315 311 309 309 309 303 298 299 300 303 305 312 319 321 324 325 328 323 316 309
268 253 258 256 262 270 282 259 246 259 273 284 294 299 301 299 301 306 311 319 325 333 336 335 325 322 318 314 310 307 305 306 305 306 310 314 316 317 321 323 319 305 297
265 253 250 252 253 262 273 261 255 262 273 288 298 310 306 299 299 306 311 319 324 334 336 334 334 333 329 324 318 314 314 313 313 313 313 314 315 316 317 318 319 304 289
259 249 247 245 253 260 267 268 268 274 284 285 299 306 306 304 301 307 312 316 328 338 341 338 332 328 327 326 322 319 319 318 318 317 316 319 320 319 319 319 319 308 284
253 246 245 252 259 263 267 270 275 277 279 283 290 296 303 307 303 306 307 313 330 337 342 346 346 336 327 322 321 322 325 326 326 325 323 322 320 320 320 319 317 314 292
249 246 248 258 269 273 271 274 275 276 281 283 285 288 297 301 304 295 299 308 321 326 332 336 338 341 339 332 329 329 329 328 328 327 326 325 322 320 319 317 313 310 303
250 249 251 260 272 276 275 271 273 278 282 280 280 287 296 296 289 289 298 301 308 312 318 323 326 329 330 332 333 332 331 330 329 329 328 327 324 322 318 315 311 307 302
250 253 260 266 272 277 278 277 273 270 273 279 284 287 291 291 284 286 292 293 295 300 306 312 316 319 321 323 325 326 326 327 327 327 327 325 324 323 321 318 314 309 303
254 256 262 272 274 280 283 281 277 274 275 282 283 282 286 288 287 283 286 288 291 295 300 305 309 312 314 316 317 319 320 321 323 323 322 321 321 321 319 315 311 307 303
262 271 275 281 287 289 286 283 280 274 273 275 276 280 283 286 282 278 280 284 288 293 297 301 304 306 309 311 312 312 313 314 316 317 317 316 317 315 314 313 309 304 302
275 279 280 287 290 288 284 281 280 278 275 275 273 276 281 282 279 275 274 280 284 289 295 298 299 302 305 308 310 310 310 310 310 311 312 311 311 312 310 310 310 305 299
283 287 294 294 292 289 287 288 288 282 281 277 276 276 278 281 278 271 272 276 280 286 291 293 296 299 302 305 307 309 306 307 307 307 307 305 305 307 307 306 306 303 298
290 291 293 292 292 289 291 290 288 284 282 281 284 284 283 282 282 276 272 274 279 284 287 288 292 295 298 302 304 305 303 304 304 304 303 303 303 303 303 303 303 303 297
286 287 288 288 287 288 285 282 280 284 285 286 286 286 284 282 282 279 275 275 279 283 287 291 292 294 297 299 301 300 301 301 302 301 303 303 302 302 303 303 302 302 295
284 285 286 286 286 284 287 287 287 286 288 287 286 284 283 284 284 284 280 278 279 281 285 290 295 298 299 299 299 299 300 300 300 302 301 301 302 302 304 303 302 300 296
286 288 289 290 293 295 296 295 292 291 290 289 289 289 289 289 289 289 288 287 288 290 292 294 295 295 296 296 296 298 297 298 298 297 299 301 301 302 303 305 304 302 300
283 285 289 291 293 292 291 291 291 291 291 291 291 292 292 292 292 291 290 289 288 288 289 290 292 294 294 294 294 295 296 299 300 301 300 302 303 306 305 305 306 307 304
281 284 287 290 291 291 292 293 293 294 293 292 292 291 290 290 289 288 288 288 288 288 290 291 291 291 292 292 295 296 297 298 300 300 301 303 303 305 307 306 305 305 303
284 287 289 289 290 291 291 290 290 290 290 291 291 292 292 291 290 288 286 286 286 287 288 289 289 289 290 292 294 295 297 298 299 298 299 302 302 305 305 306 307 303 299